• In Lithuania
  • List of Countries
  • For 7 days
  • Water Temperature
  • Satellite Maps
  • Weather Map
  • Weather Widgets
  • user-avatar
    Login

    Hourly Weather Kalgoorlie

    Today, 18 August, Friday

    Time Temperature Precipitation Wind Pressure Humidity
    00:00 +10°C° 0 mm 3 mps 733 mmHg 36%
    01:00 +10°C° 0 mm 3 mps 733 mmHg 36%
    02:00 +10°C° 0 mm 3 mps 732 mmHg 37%
    03:00 +8°C° 0 mm 4 mps 732 mmHg 38%
    04:00 +8°C° 0 mm 4 mps 733 mmHg 39%
    05:00 +8°C° 0 mm 4 mps 733 mmHg 40%
    06:00 +8°C° 0 mm 5 mps 733 mmHg 39%
    07:00 +9°C° 0 mm 6 mps 733 mmHg 37%
    08:00 +10°C° 0 mm 7 mps 733 mmHg 36%
    09:00 +12°C° 0 mm 8 mps 733 mmHg 33%
    10:00 +15°C° 0 mm 8 mps 733 mmHg 31%
    11:00 +17°C° 0 mm 8 mps 732 mmHg 28%
    12:00 +18°C° 0 mm 8 mps 732 mmHg 27%
    13:00 +21°C° 0 mm 8 mps 731 mmHg 26%
    14:00 +22°C° 0 mm 8 mps 731 mmHg 25%
    15:00 +21°C° 0 mm 7 mps 731 mmHg 25%
    16:00 +21°C° 0 mm 6 mps 731 mmHg 26%
    17:00 +20°C° 0 mm 5 mps 730 mmHg 27%
    18:00 +20°C° 0 mm 6 mps 730 mmHg 26%
    19:00 +18°C° 0 mm 7 mps 730 mmHg 26%
    20:00 +18°C° 0 mm 8 mps 730 mmHg 25%
    21:00 +18°C° 0 mm 9 mps 730 mmHg 24%
    22:00 +17°C° 0 mm 10 mps 730 mmHg 23%
    23:00 +17°C° 0 mm 11 mps 729 mmHg 22%

    Tomorrow, 19 August, Saturday

    Time Temperature Precipitation Wind Pressure Humidity
    00:00 +17°C° 0 mm 10 mps 729 mmHg 23%
    01:00 +17°C° 0 mm 10 mps 728 mmHg 23%
    02:00 +17°C° 0 mm 9 mps 728 mmHg 23%
    03:00 +17°C° 0 mm 8 mps 728 mmHg 25%
    04:00 +17°C° 0 mm 7 mps 728 mmHg 26%
    05:00 +16°C° 0 mm 6 mps 728 mmHg 28%
    06:00 +16°C° 0 mm 6 mps 728 mmHg 29%
    07:00 +16°C° 0 mm 5 mps 728 mmHg 31%
    08:00 +17°C° 0 mm 4 mps 728 mmHg 33%
    09:00 +17°C° 0 mm 4 mps 728 mmHg 38%
    10:00 +17°C° 0 mm 5 mps 728 mmHg 43%
    11:00 +17°C° 0 mm 5 mps 728 mmHg 48%
    12:00 +17°C° 0 mm 4 mps 728 mmHg 54%
    13:00 +15°C° 0 mm 4 mps 727 mmHg 61%
    14:00 +14°C° 0 mm 4 mps 726 mmHg 67%
    15:00 +15°C° 0 mm 4 mps 727 mmHg 61%
    16:00 +16°C° 0 mm 5 mps 727 mmHg 56%
    17:00 +16°C° 0 mm 5 mps 727 mmHg 51%
    18:00 +15°C° 0 mm 5 mps 728 mmHg 54%
    19:00 +14°C° 0 mm 5 mps 728 mmHg 58%
    20:00 +13°C° 0 mm 5 mps 729 mmHg 62%
    21:00 +12°C° 0 mm 5 mps 729 mmHg 63%
    22:00 +11°C° 0 mm 6 mps 729 mmHg 65%
    23:00 +10°C° 0 mm 6 mps 729 mmHg 66%

    Day after tomorrow, 20 August, Sunday

    Time Temperature Precipitation Wind Pressure Humidity
    00:00 +9°C° 0 mm 6 mps 729 mmHg 69%
    01:00 +9°C° 0 mm 6 mps 729 mmHg 72%
    02:00 +8°C° 0 mm 7 mps 729 mmHg 75%
    03:00 +8°C° 0 mm 7 mps 729 mmHg 77%
    04:00 +6°C° 0 mm 7 mps 730 mmHg 80%
    05:00 +6°C° 0 mm 8 mps 730 mmHg 83%
    06:00 +7°C° 0 mm 8 mps 730 mmHg 80%
    07:00 +8°C° 0 mm 9 mps 731 mmHg 76%
    08:00 +10°C° 0 mm 9 mps 732 mmHg 73%
    09:00 +11°C° 0 mm 9 mps 732 mmHg 67%
    10:00 +13°C° 0 mm 9 mps 732 mmHg 60%
    11:00 +15°C° 0 mm 9 mps 733 mmHg 54%
    12:00 +15°C° 0 mm 9 mps 732 mmHg 53%
    13:00 +15°C° 0 mm 8 mps 732 mmHg 53%
    14:00 +15°C° 0 mm 8 mps 732 mmHg 52%
    15:00 +15°C° 0 mm 8 mps 732 mmHg 54%
    16:00 +14°C° 0 mm 7 mps 732 mmHg 55%
    17:00 +14°C° 0 mm 6 mps 733 mmHg 56%
    18:00 +13°C° 0 mm 5 mps 733 mmHg 61%
    19:00 +12°C° 0 mm 4 mps 734 mmHg 66%
    20:00 +11°C° 0 mm 3 mps 734 mmHg 70%
    21:00 +10°C° 0 mm 3 mps 734 mmHg 73%
    22:00 +10°C° 0 mm 3 mps 734 mmHg 75%
    23:00 +9°C° 0 mm 3 mps 734 mmHg 77%

    21 August, Monday

    Time Temperature Precipitation Wind Pressure Humidity
    00:00 +9°C° 0 mm 2 mps 734 mmHg 78%
    01:00 +9°C° 0 mm 2 mps 734 mmHg 79%
    02:00 +8°C° 0 mm 2 mps 734 mmHg 80%
    03:00 +8°C° 0 mm 2 mps 734 mmHg 81%
    04:00 +7°C° 0 mm 2 mps 734 mmHg 83%
    05:00 +7°C° 0 mm 2 mps 734 mmHg 84%
    06:00 +8°C° 0 mm 2 mps 734 mmHg 80%
    07:00 +10°C° 0 mm 1 mps 735 mmHg 76%
    08:00 +10°C° 0 mm 1 mps 735 mmHg 71%
    09:00 +12°C° 0 mm 2 mps 735 mmHg 64%
    10:00 +13°C° 0 mm 2 mps 735 mmHg 56%
    11:00 +15°C° 0 mm 2 mps 734 mmHg 49%
    12:00 +16°C° 0 mm 2 mps 734 mmHg 43%
    13:00 +17°C° 0 mm 2 mps 733 mmHg 38%
    14:00 +18°C° 0 mm 3 mps 732 mmHg 33%
    15:00 +18°C° 0 mm 2 mps 732 mmHg 33%
    16:00 +18°C° 0 mm 2 mps 732 mmHg 33%
    17:00 +18°C° 0 mm 2 mps 732 mmHg 33%
    18:00 +17°C° 0 mm 2 mps 733 mmHg 36%
    19:00 +16°C° 0 mm 2 mps 733 mmHg 39%
    20:00 +15°C° 0 mm 2 mps 734 mmHg 43%
    21:00 +14°C° 0 mm 2 mps 734 mmHg 48%
    22:00 +12°C° 0 mm 3 mps 734 mmHg 52%
    23:00 +11°C° 0 mm 3 mps 734 mmHg 57%

    22 August, Tuesday

    Time Temperature Precipitation Wind Pressure Humidity
    00:00 +11°C° 0 mm 3 mps 734 mmHg 62%
    01:00 +10°C° 0 mm 3 mps 734 mmHg 67%
    02:00 +10°C° 0 mm 3 mps 734 mmHg 72%
    03:00 +9°C° 0 mm 3 mps 734 mmHg 73%
    04:00 +9°C° 0 mm 2 mps 734 mmHg 74%
    05:00 +9°C° 0 mm 2 mps 734 mmHg 75%
    06:00 +10°C° 0 mm 2 mps 734 mmHg 71%
    07:00 +10°C° 0 mm 2 mps 735 mmHg 66%
    08:00 +12°C° 0 mm 2 mps 735 mmHg 62%
    09:00 +14°C° 0 mm 2 mps 735 mmHg 55%
    10:00 +15°C° 0 mm 2 mps 735 mmHg 49%
    11:00 +17°C° 0 mm 2 mps 735 mmHg 43%
    12:00 +19°C° 0 mm 1 mps 735 mmHg 39%
    13:00 +20°C° 0 mm 1 mps 734 mmHg 36%
    14:00 +20°C° 0 mm 1 mps 734 mmHg 33%
    15:00 +20°C° 0 mm 1 mps 734 mmHg 33%
    16:00 +20°C° 0 mm 1 mps 734 mmHg 33%
    17:00 +19°C° 0 mm 2 mps 734 mmHg 33%
    18:00 +18°C° 0 mm 2 mps 735 mmHg 35%
    19:00 +17°C° 0 mm 2 mps 735 mmHg 38%
    20:00 +16°C° 0 mm 3 mps 736 mmHg 41%
    21:00 +14°C° 0 mm 3 mps 736 mmHg 43%
    22:00 +14°C° 0 mm 3 mps 736 mmHg 45%
    23:00 +13°C° 0 mm 3 mps 736 mmHg 47%

    23 August, Wednesday

    Time Temperature Precipitation Wind Pressure Humidity
    00:00 +12°C° 0 mm 4 mps 736 mmHg 56%
    01:00 +10°C° 0 mm 5 mps 736 mmHg 65%
    02:00 +9°C° 0 mm 5 mps 736 mmHg 75%
    03:00 +9°C° 0 mm 5 mps 736 mmHg 80%
    04:00 +9°C° 0 mm 5 mps 736 mmHg 86%
    05:00 +8°C° 0 mm 5 mps 736 mmHg 91%
    06:00 +9°C° 0 mm 6 mps 737 mmHg 88%
    07:00 +9°C° 0 mm 6 mps 737 mmHg 85%
    08:00 +10°C° 0 mm 6 mps 738 mmHg 82%
    09:00 +13°C° 0 mm 6 mps 738 mmHg 71%
    10:00 +15°C° 0 mm 6 mps 738 mmHg 60%
    11:00 +17°C° 0 mm 6 mps 737 mmHg 49%
    12:00 +19°C° 0 mm 5 mps 737 mmHg 45%
    13:00 +20°C° 0 mm 5 mps 736 mmHg 41%
    14:00 +21°C° 0 mm 5 mps 736 mmHg 36%
    15:00 +20°C° 0 mm 5 mps 736 mmHg 37%
    16:00 +20°C° 0 mm 5 mps 736 mmHg 37%
    17:00 +20°C° 0 mm 5 mps 736 mmHg 37%
    18:00 +19°C° 0 mm 5 mps 737 mmHg 41%
    19:00 +17°C° 0 mm 4 mps 737 mmHg 44%
    20:00 +15°C° 0 mm 4 mps 738 mmHg 48%
    21:00 +15°C° 0 mm 5 mps 737 mmHg 52%
    22:00 +14°C° 0 mm 6 mps 737 mmHg 57%
    23:00 +13°C° 0 mm 6 mps 737 mmHg 62%
    Show more